Cloud_Cover
41 17 0 0 0 0 0 0 0 0 4 46 100 100 93 53 14 15 6 61 100 68 18 5 5 79 78 100 86 20 28 5 97 93 34 5 12 64 46 100 9 1 4
83 39 0 0 0 0 0 0 0 0 0 4 26 57 64 16 59 100 100 92 100 100 14 7 8 60 12 17 58 100 99 40 26 16 98 71 5 5 6 83 100 21 60
4 100 8 0 0 0 0 0 0 0 0 0 0 26 91 95 97 29 98 100 100 100 70 8 5 14 92 55 65 97 99 100 100 100 58 99 100 82 86 13 70 96 51
1 34 70 0 0 0 0 0 0 0 4 4 5 4 4 12 91 100 100 37 81 76 89 100 87 100 57 61 100 87 76 100 96 100 18 5 7 13 9 81 88 32 96
31 14 6 0 0 0 0 0 0 0 0 4 13 5 3 37 50 59 69 5 14 45 100 100 100 100 100 100 100 100 100 100 100 100 50 30 25 26 12 6 29 91 74
76 0 0 0 0 0 1 5 4 0 0 0 0 85 36 96 97 97 100 100 100 100 100 100 100 100 100 100 100 100 98 100 100 100 100 100 92 5 31 10 7 11 7
98 47 0 0 5 1 0 0 0 0 1 0 2 10 3 1 36 97 69 63 74 65 56 83 8 19 51 25 66 100 100 100 100 92 97 100 100 99 14 14 9 60 82
100 100 81 93 100 96 3 8 0 0 0 0 0 0 4 5 3 0 0 0 1 5 24 14 5 5 5 5 0 0 19 94 100 100 100 100 100 98 95 71 27 43 66
100 100 100 100 100 100 100 41 46 93 98 87 22 0 0 0 0 0 0 0 0 0 2 1 0 0 14 1 5 5 5 5 5 11 82 100 100 100 100 90 28 7 45
98 77 96 100 96 93 21 65 50 19 49 0 0 0 0 0 0 0 0 0 0 0 0 0 0 0 0 0 0 0 0 0 0 0 0 2 0 1 22 55 5 0 2
0 0 0 0 0 0 0 0 0 0 0 0 0 0 0 4 0 0 51 0 26 0 0 0 0 0 5 5 2 0 0 0 0 4 1 0 0 0 0 0 0 0 0
0 0 0 0 0 0 0 0 0 0 0 0 0 0 0 3 13 59 39 70 26 0 0 0 0 0 0 7 18 3 12 0 4 0 0 2 0 0 0 0 0 0 1
0 0 0 0 0 0 0 0 0 0 0 0 0 0 0 0 0 0 6 44 31 48 19 14 12 20 15 11 0 0 6 11 5 1 0 0 0 0 0 0 0 0 0
0 0 0 0 0 0 0 0 0 0 0 0 0 0 0 0 0 0 2 0 8 18 38 34 30 35 43 21 16 100 71 5 8 9 5 0 0 0 0 4 0 0 5
0 0 0 0 0 0 0 0 0 0 0 0 0 0 0 0 0 0 0 0 0 4 22 28 46 66 55 54 43 56 100 100 100 90 24 6 2 3 0 5 5 2 5
2 4 2 0 0 0 0 0 0 0 0 1 2 2 3 3 0 0 0 0 0 0 0 12 15 16 54 100 88 53 44 100 84 100 100 99 68 15 5 5 5 2 1
5 5 1 0 0 0 0 0 0 0 5 5 5 4 3 0 0 0 0 0 0 0 0 0 0 17 30 7 82 100 65 20 36 62 98 100 100 100 59 38 5 5 5
5 5 1 0 0 0 0 0 0 0 0 0 0 0 0 0 0 0 0 0 0 0 0 0 0 0 8 21 5 1 8 9 0 55 18 100 100 100 100 100 64 6 5
3 5 2 0 0 0 0 0 0 0 0 0 0 0 0 0 0 0 0 0 0 0 0 0 0 0 0 0 0 0 0 0 0 18 91 40 91 100 100 100 89 91 90
0 0 0 0 0 0 0 0 0 0 0 0 0 0 0 0 0 0 0 0 0 0 0 0 0 0 0 0 0 0 0 0 4 2 0 4 15 67 96 100 100 89 100
0 0 0 0 0 0 0 0 0 0 0 0 0 0 0 0 0 0 0 0 0 0 0 0 0 0 0 0 0 0 0 0 0 0 0 0 30 16 5 49 70 18 52
0 0 0 0 0 0 0 0 0 0 0 0 0 0 0 0 0 0 0 0 0 0 0 0 0 0 0 0 0 0 0 0 0 0 1 3 0 1 92 36 5 69 55
0 0 0 0 0 0 0 0 0 0 0 0 0 0 0 0 0 0 0 0 0 89 19 0 0 0 0 0 4 12 5 4 1 1 21 17 12 26 24 42 78 97 94
0 0 0 0 0 0 0 0 0 13 13 0 19 4 0 0 0 0 0 0 0 0 0 0 0 15 54 6 7 18 70 84 68 5 0 65 33 28 37 100 60 25 27
0 2 5 1 0 0 0 0 0 3 40 36 94 100 54 0 0 2 38 0 0 10 62 0 1 0 0 20 9 100 98 100 100 92 30 5 1 22 37 43 72 58 100
34 22 5 2 0 3 5 5 5 4 100 100 99 84 100 1 0 0 0 2 89 100 100 21 1 0 0 5 27 80 98 99 100 100 99 100 51 1 0 0 11 100 100